Location: Unspecified
(0.0000°N, 0.0000°E)
Time: 19:32:22
(UTC+02:00)

Sapphire - Visible Passes

Search period start: 16 August 2017 00:00
Search period end: 26 August 2017 00:00
Orbit: 784 x 797 km, 67.1° (Epoch: 15 August)

Date Brightness Start Highest point End Pass type
(mag) Time Alt. Az. Time Alt. Az. Time Alt. Az.
24 Aug ? 21:30:17 10° S 21:30:52 13° S 21:30:52 13° S visible
25 Aug ? 21:00:23 10° SSE 21:03:47 21° ESE 21:03:47 21° ESE visible
25 Aug ? 22:43:14 10° SW 22:44:46 17° WSW 22:44:46 17° WSW visible
